| time (UTC) | temp F | wind direction | speed knots | gust knots | rain 1hr in | rain 24hr in | rain mn in | humidity % | barometer mb |
| 20260509011535 | 58 | 360 | 0.0 | 0.0 | 0.00 | 0.00 | 0.00 | 75 | 1012.2 |
| 20260509010037 | 59 | 360 | 0.0 | 0.0 | 0.00 | 0.00 | 0.00 | 73 | 1012.2 |
| 20260509004533 | 60 | 360 | 0.0 | 0.0 | 0.00 | 0.00 | 0.00 | 71 | 1012.1 |
| 20260509003035 | 61 | 98 | 0.0 | 0.0 | 0.00 | 0.00 | 0.00 | 68 | 1011.9 |
| 20260509001536 | 62 | 96 | 0.0 | 0.0 | 0.00 | 0.00 | 0.00 | 67 | 1011.9 |
| 20260509000032 | 62 | 115 | 0.0 | 0.0 | 0.00 | 0.00 | 0.00 | 66 | 1011.8 |
| 20260508234532 | 63 | 118 | 0.0 | 0.0 | 0.00 | 0.00 | 0.00 | 64 | 1011.8 |
| 20260508233036 | 63 | 60 | 0.0 | 0.0 | 0.00 | 0.00 | 0.00 | 64 | 1011.9 |
| 20260508231531 | 64 | 78 | 0.0 | 0.0 | 0.00 | 0.00 | 0.00 | 62 | 1011.6 |
| 20260508230030 | 64 | 86 | 0.0 | 0.0 | 0.00 | 0.00 | 0.00 | 61 | 1011.5 |
| 20260508224530 | 65 | 64 | 0.0 | 0.0 | 0.00 | 0.00 | 0.00 | 61 | 1011.4 |
| 20260508223030 | 65 | 100 | 0.0 | 3.5 | 0.00 | 0.00 | 0.00 | 60 | 1011.5 |
| 20260508221529 | 65 | 107 | 0.0 | 1.7 | 0.00 | 0.00 | 0.00 | 59 | 1011.4 |
| 20260508220027 | 66 | 109 | 0.0 | 2.6 | 0.00 | 0.00 | 0.00 | 57 | 1011.3 |
| 20260508214532 | 66 | 117 | 0.0 | 10.4 | 0.00 | 0.00 | 0.00 | 58 | 1011.5 |
| 20260508213026 | 66 | 105 | 0.0 | 0.9 | 0.00 | 0.00 | 0.00 | 57 | 1011.8 |
| 20260508211526 | 66 | 151 | 0.0 | 1.7 | 0.00 | 0.00 | 0.00 | 57 | 1011.5 |
| 20260508210032 | 66 | 69 | 0.0 | 0.0 | 0.00 | 0.00 | 0.00 | 55 | 1011.5 |
| 20260508204523 | 66 | 145 | 0.0 | 6.1 | 0.00 | 0.00 | 0.00 | 55 | 1011.8 |
| 20260508203029 | 66 | 77 | 0.0 | 0.9 | 0.00 | 0.00 | 0.00 | 57 | 1011.9 |
| 20260508201522 | 67 | 63 | 0.0 | 5.2 | 0.00 | 0.00 | 0.00 | 53 | 1012.1 |
| 20260508200017 | 66 | 123 | 0.0 | 5.2 | 0.00 | 0.00 | 0.00 | 56 | 1012.2 |
| 20260508194518 | 66 | 22 | 0.0 | 11.3 | 0.00 | 0.00 | 0.00 | 54 | 1012.6 |
| 20260508193015 | 67 | 123 | 0.0 | 7.0 | 0.00 | 0.00 | 0.00 | 56 | 1012.8 |
| 20260508191512 | 67 | 40 | 0.9 | 8.7 | 0.00 | 0.00 | 0.00 | 53 | 1013.2 |
| 20260508190013 | 68 | 113 | 0.0 | 1.7 | 0.00 | 0.00 | 0.00 | 52 | 1013.2 |
| 20260508184517 | 67 | 148 | 0.9 | 8.7 | 0.00 | 0.00 | 0.00 | 53 | 1013.6 |
| 20260508183009 | 66 | 139 | 0.0 | 2.6 | 0.00 | 0.00 | 0.00 | 55 | 1013.8 |
| 20260508181508 | 67 | 133 | 0.0 | 1.7 | 0.00 | 0.00 | 0.00 | 53 | 1013.8 |
| 20260508180008 | 68 | 132 | 5.2 | 7.8 | 0.00 | 0.00 | 0.00 | 49 | 1014.0 |
| 20260508174506 | 67 | 69 | 0.9 | 7.0 | 0.00 | 0.00 | 0.00 | 54 | 1014.2 |
| 20260508173003 | 66 | 84 | 0.0 | 0.9 | 0.00 | 0.00 | 0.00 | 50 | 1014.6 |
| 20260508171600 | 65 | 147 | 0.0 | 5.2 | 0.00 | 0.00 | 0.00 | 52 | 1014.6 |
| 20260508170100 | 65 | 318 | 0.0 | 0.0 | 0.00 | 0.00 | 0.00 | 56 | 1015.0 |
| 20260508164553 | 63 | 323 | 0.0 | 3.5 | 0.00 | 0.00 | 0.00 | 54 | 1015.4 |
| 20260508163103 | 64 | 294 | 0.0 | 3.5 | 0.00 | 0.00 | 0.00 | 54 | 1015.7 |
| 20260508161556 | 64 | 288 | 0.0 | 0.0 | 0.00 | 0.00 | 0.00 | 54 | 1015.9 |
| 20260508160045 | 63 | 105 | 0.0 | 6.1 | 0.00 | 0.00 | 0.00 | 50 | 1016.1 |
| 20260508154542 | 62 | 143 | 0.0 | 0.0 | 0.00 | 0.00 | 0.00 | 53 | 1016.4 |
| 20260508153052 | 61 | 323 | 0.0 | 11.3 | 0.00 | 0.00 | 0.00 | 53 | 1016.5 |
| 20260508151534 | 61 | 114 | 1.7 | 7.0 | 0.00 | 0.00 | 0.00 | 52 | 1016.7 |
| 20260508150030 | 60 | 355 | 0.9 | 5.2 | 0.00 | 0.00 | 0.00 | 52 | 1016.6 |
| 20260508144526 | 60 | 344 | 0.0 | 0.0 | 0.00 | 0.00 | 0.00 | 57 | 1016.7 |
| 20260508143023 | 59 | 348 | 0.0 | 0.0 | 0.00 | 0.00 | 0.00 | 58 | 1016.9 |
| 20260508141518 | 58 | 334 | 0.0 | 0.0 | 0.00 | 0.00 | 0.00 | 60 | 1016.9 |
| 20260508140014 | 57 | 312 | 0.0 | 0.0 | 0.00 | 0.00 | 0.00 | 61 | 1017.0 |
| 20260508134511 | 56 | 31 | 0.0 | 0.0 | 0.00 | 0.00 | 0.00 | 66 | 1017.1 |
| 20260508133004 | 54 | 107 | 0.0 | 0.0 | 0.00 | 0.00 | 0.00 | 70 | 1017.1 |
| 20260508131603 | 52 | 327 | 0.0 | 0.0 | 0.00 | 0.00 | 0.00 | 92 | 1017.2 |
| 20260508130055 | 49 | 118 | 0.0 | 0.9 | 0.00 | 0.00 | 0.00 | 97 | 1017.1 |
| 20260508124551 | 48 | 293 | 0.0 | 0.0 | 0.00 | 0.00 | 0.00 | 97 | 1017.0 |
| 20260508123049 | 46 | 331 | 0.0 | 2.6 | 0.00 | 0.00 | 0.00 | 97 | 1016.8 |
| 20260508121545 | 43 | 147 | 0.0 | 0.0 | 0.00 | 0.00 | 0.00 | 97 | 1016.7 |
| 20260508120039 | 42 | 360 | 0.0 | 0.0 | 0.00 | 0.00 | 0.00 | 96 | 1016.5 |
| 20260508114536 | 41 | 360 | 0.0 | 0.0 | 0.00 | 0.11 | 0.00 | 96 | 1016.3 |
| 20260508113035 | 40 | 147 | 0.0 | 0.0 | 0.00 | 0.11 | 0.00 | 96 | 1016.0 |
| 20260508111534 | 40 | 147 | 0.0 | 0.0 | 0.00 | 0.11 | 0.00 | 95 | 1015.8 |
| 20260508110033 | 40 | 147 | 0.0 | 0.0 | 0.00 | 0.11 | 0.00 | 95 | 1015.5 |
| 20260508104524 | 40 | 147 | 0.0 | 0.0 | 0.00 | 0.16 | 0.00 | 95 | 1015.3 |
| 20260508103037 | 41 | 147 | 0.0 | 0.0 | 0.00 | 0.16 | 0.00 | 95 | 1015.2 |
| 20260508101520 | 41 | 147 | 0.0 | 0.0 | 0.00 | 0.16 | 0.00 | 95 | 1014.8 |
| 20260508100019 | 41 | 147 | 0.0 | 0.0 | 0.00 | 0.16 | 0.00 | 95 | 1014.6 |
| 20260508094516 | 42 | 147 | 0.0 | 0.0 | 0.00 | 0.16 | 0.00 | 95 | 1014.5 |
| 20260508093014 | 42 | 147 | 0.0 | 0.0 | 0.00 | 0.16 | 0.00 | 95 | 1014.4 |
| 20260508091515 | 42 | 147 | 0.0 | 0.0 | 0.00 | 0.16 | 0.00 | 95 | 1014.5 |
| 20260508090011 | 43 | 147 | 0.0 | 0.0 | 0.00 | 0.16 | 0.00 | 95 | 1014.2 |
| 20260508084509 | 43 | 147 | 0.0 | 0.0 | 0.00 | 0.16 | 0.00 | 95 | 1014.2 |
| 20260508083007 | 43 | 147 | 0.0 | 0.0 | 0.00 | 0.16 | 0.00 | 95 | 1014.0 |
| 20260508081506 | 43 | 146 | 0.0 | 0.0 | 0.00 | 0.16 | 0.00 | 95 | 1013.9 |
| 20260508080005 | 44 | 146 | 0.0 | 0.0 | 0.00 | 0.16 | 0.00 | 95 | 1013.7 |
| 20260508074502 | 44 | 146 | 0.0 | 0.9 | 0.00 | 0.16 | 0.00 | 95 | 1013.6 |
| 20260508073000 | 44 | 11 | 0.0 | 0.0 | 0.00 | 0.16 | 0.00 | 95 | 1013.7 |
| 20260508071600 | 44 | 10 | 0.0 | 0.0 | 0.00 | 0.16 | 0.00 | 95 | 1013.5 |
| 20260508070059 | 45 | 10 | 0.0 | 0.0 | 0.00 | 0.16 | 0.00 | 95 | 1013.4 |
| 20260508064557 | 45 | 10 | 0.0 | 0.0 | 0.00 | 0.16 | 0.00 | 95 | 1013.4 |
| 20260508063059 | 45 | 10 | 0.0 | 0.0 | 0.00 | 0.16 | 0.00 | 95 | 1013.4 |
| 20260508061602 | 45 | 10 | 0.0 | 0.0 | 0.00 | 0.16 | 0.00 | 95 | 1013.5 |
| 20260508060111 | 45 | 11 | 0.0 | 0.0 | 0.00 | 0.16 | 0.00 | 95 | 1013.4 |
| 20260508054638 | 45 | 11 | 0.0 | 0.0 | 0.00 | 0.20 | 0.00 | 95 | 1013.5 |
| 20260508053055 | 45 | 11 | 0.0 | 0.0 | 0.00 | 0.20 | 0.00 | 95 | 1013.5 |
| 20260508051552 | 45 | 11 | 0.0 | 0.0 | 0.00 | 0.20 | 0.00 | 94 | 1013.6 |
| 20260508050050 | 45 | 11 | 0.0 | 0.0 | 0.00 | 0.20 | 0.00 | 94 | 1013.4 |
| 20260508044548 | 45 | 11 | 0.0 | 0.0 | 0.00 | 0.26 | 0.00 | 94 | 1013.3 |
| 20260508043055 | 45 | 11 | 0.0 | 0.0 | 0.00 | 0.26 | 0.00 | 94 | 1013.2 |
| 20260508041545 | 46 | 11 | 0.0 | 0.0 | 0.00 | 0.26 | 0.00 | 93 | 1013.1 |
| 20260508040041 | 46 | 11 | 0.0 | 0.0 | 0.00 | 0.26 | 0.00 | 93 | 1013.0 |
| 20260508034548 | 46 | 11 | 0.0 | 0.0 | 0.00 | 0.28 | 0.26 | 93 | 1013.0 |
| 20260508033040 | 47 | 11 | 0.0 | 0.0 | 0.00 | 0.28 | 0.26 | 93 | 1013.0 |
| 20260508031538 | 47 | 11 | 0.0 | 0.0 | 0.00 | 0.28 | 0.26 | 93 | 1013.1 |
| 20260508030039 | 47 | 11 | 0.0 | 0.0 | 0.00 | 0.28 | 0.26 | 92 | 1013.0 |
| 20260508024541 | 48 | 13 | 0.0 | 0.0 | 0.00 | 0.31 | 0.26 | 92 | 1013.0 |
| 20260508023032 | 48 | 13 | 0.0 | 0.0 | 0.00 | 0.31 | 0.26 | 91 | 1012.8 |
| 20260508021528 | 48 | 13 | 0.0 | 0.0 | 0.00 | 0.31 | 0.26 | 91 | 1012.4 |
| 20260508020026 | 49 | 13 | 0.0 | 0.0 | 0.00 | 0.31 | 0.26 | 90 | 1012.3 |
| 20260508014533 | 50 | 13 | 0.0 | 0.0 | 0.00 | 0.33 | 0.26 | 89 | 1012.1 |
| 20260508013022 | 50 | 13 | 0.0 | 0.0 | 0.00 | 0.33 | 0.26 | 89 | 1011.8 |